Home   Weather   Coral Harbour   Past weeks

Flag for Canada Past Weather in Coral Harbour, Nunavut, Canada — Yesterday and Last 2 Weeks

Now
54 °F

Partly sunny.


Feels Like: 49 °F
Forecast: 44 / 59 °F
Wind: 17 mph from South

Location: Coral Harbour

Current Time: Jul 25, 2017 at 12:01:25 pm

Latest Report: Jul 25, 2017 at 11:00 am


Visibility: 15 mi

Pressure: 29.70 "Hg

Humidity: 77%

Dew Point: 46 °F

Location of Coral HarbourLocation

Past Weather in Coral Harbour — Graph

°F

Coral Harbour Temperature Yesterday

Maximum temperature yesterday: 59 °F (at 5:00 pm)
Minimum temperature yesterday: 45 °F (at 5:00 am)
Average temperature yesterday: 50 °F

High & Low Weather Summary for the Past Weeks

 TemperatureHumidityPressure
High66 °F (Jul 22, 4:00 pm)100% (Jul 15, 11:09 pm)29.92 "Hg (Jul 15, 11:09 pm)
Low34 °F (Jul 15, 1:00 am)34% (Jul 12, 4:00 pm)29.04 "Hg (Jul 17, 9:38 am)
Average49 °F72%29.55 "Hg
* Reported Jul 10 10:00 am — Jul 25 10:00 am, Coral Harbour. Weather by CustomWeather, © 2017

Note: Actual official high and low records may vary slightly from our data, if they occured in-between our weather recording intervals... More about our weather records

Advertising

Coral Harbour Weather History for the Previous 24 Hours

Scroll right to see more
 ConditionsComfort  
Time TempWeatherWind HumidityBarometerVisibility
10:00 am
Tue, Jul 25
52 °FBroken clouds.16 mph77%29.71 "Hg15 mi
9:00 am52 °FPassing clouds.8 mph77%29.72 "Hg15 mi
8:00 am48 °FScattered clouds.14 mph87%29.73 "Hg15 mi
7:00 am46 °FPartly sunny.6 mph93%29.73 "Hg15 mi
6:00 am45 °FPartly sunny.6 mph93%29.74 "Hg15 mi
5:00 am45 °FBroken clouds.8 mph87%29.73 "Hg15 mi
4:00 am45 °FPassing clouds.9 mph87%29.74 "Hg15 mi
3:32 am41 °FPassing clouds.10 mph93%29.75 "Hg15 mi
3:00 am45 °FPassing clouds.3 mph87%29.75 "Hg15 mi
2:00 am45 °FPassing clouds.6 mph87%29.74 "Hg15 mi
1:00 am46 °FPassing clouds.8 mph87%29.74 "Hg15 mi
12:00 am48 °FPassing clouds.13 mph82%29.74 "Hg15 mi
11:00 pm
Mon, Jul 24
50 °FScattered clouds.9 mph71%29.72 "Hg15 mi
10:00 pm50 °FPassing clouds.8 mph76%29.71 "Hg15 mi
9:00 pm54 °FPassing clouds.13 mph67%29.69 "Hg15 mi
8:00 pm55 °FPassing clouds.17 mph63%29.68 "Hg15 mi
7:00 pm55 °FScattered clouds.21 mph63%29.66 "Hg15 mi
6:00 pm57 °FScattered clouds.24 mph59%29.64 "Hg15 mi
5:00 pm59 °FScattered clouds.23 mph55%29.63 "Hg15 mi
4:29 pm57 °FBroken clouds.20 mph63%29.62 "Hg15 mi
4:00 pm57 °FBroken clouds.14 mph67%29.62 "Hg15 mi
3:40 pm57 °FPartly sunny.17 mph72%29.62 "Hg15 mi
3:00 pm52 °FLow clouds.14 mph82%29.62 "Hg8 mi
2:00 pm48 °FLow clouds.8 mph94%29.62 "Hg8 mi
1:00 pm46 °FLow clouds.6 mph93%29.62 "Hg15 mi
12:00 pm46 °FLow clouds.13 mph87%29.62 "Hg15 mi
Weather by CustomWeather, © 2017

See weather overviewHow to use our weather pages